| time (UTC) | temp C | wind direction | speed KPH | gust KPH | rain 1hr cm | rain 24hr cm | rain mn cm | humidity % | barometer mb |
| 20260510083006 | 11 | 98 | 0.0 | 0.0 | 0.00 | 0.05 | 0.00 | 88 | 1009.9 |
| 20260510081608 | 11 | 98 | 0.0 | 0.0 | 0.00 | 0.05 | 0.00 | 88 | 1009.7 |
| 20260510074602 | 11 | 98 | 0.0 | 0.0 | 0.00 | 0.05 | 0.00 | 87 | 1009.2 |
| 20260510074506 | 11 | 98 | 0.0 | 0.0 | 0.00 | 0.05 | 0.00 | 87 | 1009.2 |
| 20260510071512 | 11 | 98 | 0.0 | 0.0 | 0.00 | 0.05 | 0.00 | 87 | 1009.0 |
| 20260510070104 | 12 | 98 | 0.0 | 0.0 | 0.00 | 0.05 | 0.00 | 87 | 1008.9 |
| 20260510070002 | 12 | 98 | 0.0 | 0.0 | 0.00 | 0.05 | 0.00 | 87 | 1008.8 |
| 20260510063116 | 12 | 98 | 0.0 | 0.0 | 0.00 | 0.05 | 0.00 | 86 | 1008.7 |
| 20260510054537 | 13 | 98 | 0.0 | 0.0 | 0.00 | 0.05 | 0.00 | 85 | 1008.7 |
| 20260510053045 | 13 | 98 | 0.0 | 0.0 | 0.00 | 0.05 | 0.00 | 84 | 1008.8 |
| 20260510051512 | 13 | 98 | 0.0 | 0.0 | 0.00 | 0.05 | 0.00 | 84 | 1008.7 |
| 20260510050039 | 13 | 98 | 0.0 | 0.0 | 0.00 | 0.05 | 0.00 | 83 | 1008.7 |
| 20260510044638 | 13 | 98 | 0.0 | 0.0 | 0.00 | 0.05 | 0.00 | 82 | 1008.8 |
| 20260510043056 | 13 | 98 | 0.0 | 0.0 | 0.00 | 0.05 | 0.00 | 82 | 1008.9 |
| 20260510040150 | 15 | 98 | 0.0 | 0.0 | 0.00 | 0.05 | 0.00 | 81 | 1008.7 |
| 20260510034549 | 15 | 98 | 0.0 | 0.0 | 0.00 | 0.05 | 0.05 | 80 | 1008.7 |
| 20260510033124 | 15 | 98 | 0.0 | 0.0 | 0.00 | 0.05 | 0.05 | 79 | 1008.7 |
| 20260510031646 | 16 | 98 | 0.0 | 0.0 | 0.00 | 0.05 | 0.05 | 79 | 1008.7 |
| 20260510030126 | 16 | 98 | 0.0 | 0.0 | 0.00 | 0.05 | 0.05 | 78 | 1008.6 |
| 20260510024654 | 16 | 98 | 0.0 | 0.0 | 0.00 | 0.05 | 0.05 | 78 | 1008.5 |
| 20260510023021 | 16 | 98 | 0.0 | 0.0 | 0.00 | 0.05 | 0.05 | 78 | 1008.4 |
| 20260510020035 | 17 | 136 | 0.0 | 0.0 | 0.00 | 0.05 | 0.05 | 76 | 1008.1 |
| 20260510014553 | 17 | 136 | 0.0 | 0.0 | 0.00 | 0.05 | 0.05 | 75 | 1008.0 |
| 20260510013014 | 17 | 136 | 0.0 | 0.0 | 0.00 | 0.05 | 0.05 | 74 | 1007.7 |
| 20260510011627 | 18 | 136 | 0.0 | 0.0 | 0.00 | 0.05 | 0.05 | 73 | 1007.6 |
| 20260510010046 | 18 | 136 | 0.0 | 0.0 | 0.00 | 0.05 | 0.05 | 71 | 1007.4 |
| 20260510004622 | 19 | 136 | 0.0 | 0.0 | 0.00 | 0.05 | 0.05 | 69 | 1007.3 |
| 20260510003157 | 20 | 136 | 0.0 | 0.0 | 0.00 | 0.05 | 0.05 | 67 | 1007.2 |
| 20260510001630 | 20 | 136 | 0.0 | 0.0 | 0.00 | 0.05 | 0.05 | 64 | 1007.1 |
| 20260510000009 | 21 | 136 | 0.0 | 0.0 | 0.00 | 0.05 | 0.05 | 61 | 1007.0 |
| 20260509234635 | 22 | 136 | 0.0 | 0.0 | 0.00 | 0.05 | 0.05 | 57 | 1006.8 |
| 20260509233024 | 22 | 136 | 0.0 | 0.0 | 0.00 | 0.05 | 0.05 | 55 | 1006.7 |
| 20260509231555 | 22 | 136 | 0.0 | 0.0 | 0.00 | 0.05 | 0.05 | 52 | 1006.6 |
| 20260509224507 | 23 | 136 | 0.0 | 0.0 | 0.00 | 0.05 | 0.05 | 51 | 1006.6 |
| 20260509223154 | 23 | 184 | 0.0 | 0.0 | 0.00 | 0.05 | 0.05 | 51 | 1006.6 |
| 20260509221534 | 23 | 136 | 0.0 | 0.0 | 0.00 | 0.05 | 0.05 | 50 | 1006.6 |
| 20260509220009 | 23 | 147 | 0.0 | 0.0 | 0.00 | 0.05 | 0.05 | 49 | 1006.7 |
| 20260509213111 | 24 | 240 | 0.0 | 0.0 | 0.00 | 0.05 | 0.05 | 49 | 1006.7 |
| 20260509211546 | 25 | 206 | 0.0 | 0.0 | 0.00 | 0.05 | 0.05 | 47 | 1006.6 |
| 20260509210153 | 25 | 176 | 0.0 | 0.0 | 0.00 | 0.05 | 0.05 | 47 | 1006.5 |
| 20260509204520 | 24 | 128 | 0.0 | 0.0 | 0.00 | 0.05 | 0.05 | 48 | 1006.5 |
| 20260509203154 | 24 | 124 | 0.0 | 1.6 | 0.00 | 0.05 | 0.05 | 51 | 1006.3 |
| 20260509201655 | 24 | 101 | 0.0 | 0.0 | 0.00 | 0.05 | 0.05 | 51 | 1006.5 |
| 20260509200137 | 23 | 153 | 0.0 | 0.0 | 0.00 | 0.05 | 0.05 | 55 | 1006.9 |
| 20260509194507 | 22 | 136 | 0.0 | 0.0 | 0.00 | 0.05 | 0.05 | 58 | 1007.1 |
| 20260509193046 | 21 | 215 | 0.0 | 0.0 | 0.00 | 0.05 | 0.05 | 59 | 1007.5 |
| 20260509190013 | 20 | 119 | 0.0 | 0.0 | 0.05 | 0.05 | 0.05 | 69 | 1007.5 |
| 20260509183156 | 20 | 145 | 0.0 | 0.0 | 0.05 | 0.05 | 0.05 | 64 | 1008.1 |
| 20260509181515 | 21 | 121 | 0.0 | 0.0 | 0.00 | 0.00 | 0.00 | 53 | 1008.2 |
| 20260509180040 | 21 | 147 | 0.0 | 0.0 | 0.00 | 0.00 | 0.00 | 51 | 1008.4 |
| 20260509173038 | 22 | 256 | 0.0 | 0.0 | 0.00 | 0.00 | 0.00 | 53 | 1008.6 |
| 20260509171545 | 21 | 190 | 0.0 | 0.0 | 0.00 | 0.00 | 0.00 | 54 | 1008.8 |
| 20260509170054 | 21 | 227 | 0.0 | 0.0 | 0.00 | 0.00 | 0.00 | 53 | 1008.8 |
| 20260509164600 | 21 | 245 | 0.0 | 0.0 | 0.00 | 0.00 | 0.00 | 54 | 1009.0 |
| 20260509163006 | 20 | 241 | 0.0 | 0.0 | 0.00 | 0.00 | 0.00 | 54 | 1009.0 |
| 20260509161535 | 20 | 250 | 0.0 | 0.0 | 0.00 | 0.00 | 0.00 | 54 | 1009.0 |
| 20260509160050 | 21 | 232 | 0.0 | 1.6 | 0.00 | 0.00 | 0.00 | 55 | 1009.2 |
| 20260509154557 | 21 | 294 | 0.0 | 0.0 | 0.00 | 0.00 | 0.00 | 54 | 1009.4 |
| 20260509153114 | 21 | 121 | 0.0 | 0.0 | 0.00 | 0.00 | 0.00 | 55 | 1009.4 |
| 20260509150017 | 18 | 214 | 0.0 | 0.0 | 0.00 | 0.00 | 0.00 | 61 | 1009.8 |
| 20260509144501 | 18 | 148 | 0.0 | 0.0 | 0.00 | 0.00 | 0.00 | 63 | 1010.2 |
| 20260509141603 | 17 | 183 | 0.0 | 0.0 | 0.00 | 0.00 | 0.00 | 63 | 1010.4 |
| 20260509140106 | 17 | 161 | 0.0 | 0.0 | 0.00 | 0.00 | 0.00 | 64 | 1010.2 |
| 20260509134511 | 16 | 118 | 0.0 | 0.0 | 0.00 | 0.00 | 0.00 | 64 | 1010.4 |
| 20260509133036 | 16 | 103 | 0.0 | 0.0 | 0.00 | 0.00 | 0.00 | 64 | 1010.4 |
| 20260509124607 | 16 | 114 | 0.0 | 1.6 | 0.00 | 0.00 | 0.00 | 63 | 1010.4 |
| 20260509124501 | 16 | 178 | 0.0 | 1.6 | 0.00 | 0.00 | 0.00 | 63 | 1010.4 |
| 20260509123033 | 16 | 167 | 0.0 | 0.0 | 0.00 | 0.00 | 0.00 | 64 | 1010.3 |
| 20260509121557 | 16 | 236 | 0.0 | 0.0 | 0.00 | 0.00 | 0.00 | 64 | 1010.5 |
| 20260509111637 | 15 | 95 | 0.0 | 0.0 | 0.00 | 0.00 | 0.00 | 58 | 1010.2 |
| 20260509104547 | 15 | 159 | 0.0 | 0.0 | 0.00 | 0.00 | 0.00 | 57 | 1010.2 |
| 20260509103021 | 15 | 119 | 0.0 | 0.0 | 0.00 | 0.00 | 0.00 | 58 | 1010.1 |
| 20260509093008 | 15 | 192 | 0.0 | 0.0 | 0.00 | 0.00 | 0.00 | 57 | 1010.0 |
| 20260509091538 | 15 | 105 | 0.0 | 0.0 | 0.00 | 0.00 | 0.00 | 58 | 1010.0 |
| 20260509090042 | 15 | 149 | 0.0 | 0.0 | 0.00 | 0.00 | 0.00 | 57 | 1010.1 |
| 20260509084524 | 15 | 104 | 0.0 | 0.0 | 0.00 | 0.00 | 0.00 | 57 | 1010.4 |